Content
SEND FEEDBACK

Daily
Averages
Monthly
Summary
United States of America

POINTE A LA HACHE, LOUISIANA


Home > North America > United States > Louisiana
Elevation: 4 feet     Latitude: 29 35N     Longitude: 089 50W

WEATHER
 
SELECT A DAY
Number of Records: 170,525;   Date Range: 1/1/95 - 11/24/14
 
SHARE

PRINT THIS DATA

[ ← Previous Day ]
WEATHER ALMANAC - JANUARY 23, 2013
[ Next Day → ]
[ °C ]   °F
Weather ElementAverageHighLow
Temperature53.5 °F69.1 °F (12:55 pm)39 °F (3:55 am)
Dewpoint42.9 °F48.9 °F (8:55 am)35.1 °F (6:55 am)
Humidity71.1 %93 % (2:22 am)36 % (1:55 pm)
Barometer30.35 in30.42 in (9:55 am)30.32 in (3:55 pm)
Wind Speed3.2 mph10.4 mph (4:55 pm)
Weather ElementAverage
Visibility8.4 mi
Wind DirectionESE (109.2 °)

Weather ElementTotal
Precipitation---
Heating Degree Days11 (Base 65)
Growing Degree Days4.1 (Base 50)
Averaged from 25 records on January 23, 2013
WEATHER CONDITIONS BREAKOUT
WIND DIRECTION BREAKOUT
WEATHER BY HOUR - JANUARY 23, 2013
[ °C ]   °F
Local TimeTemperatureDewpointHumidityBarometerVisibilityWind DirectionWind SpeedGust SpeedPrecipitationEventsConditions
2:22 AM39.2 °F37.4 °F93 %30.35 inCalmMostly Cloudy
2:55 AM39.9 °F36.0 °F86 %30.35 inCalmOvercast
3:55 AM39.0 °F36.0 °F89 %30.35 inCalmClear
4:55 AM39.9 °F36.0 °F86 %30.35 inCalmClear
5:55 AM39.9 °F36.0 °F86 %30.36 inCalmClear
6:12 AM41.0 °F37.4 °F87 %30.37 in7.0 miCalmFogShallow Fog
6:55 AM39.0 °F35.1 °F86 %30.38 in6.0 miCalmScattered Clouds
7:55 AM46.0 °F41.0 °F83 %30.38 in7.0 miCalmScattered Clouds
8:55 AM57.0 °F48.9 °F74 %30.41 in8.0 miCalmPartly Cloudy
9:55 AM63.0 °F46.0 °F54 %30.42 in10.0 miCalmPartly Cloudy
10:55 AM66.0 °F44.1 °F45 %30.41 in10.0 miSW (220°)6.9 mphPartly Cloudy
11:55 AM66.9 °F41.0 °F39 %30.38 in10.0 miSW (220°)4.6 mphClear
12:55 PM69.1 °F42.1 °F38 %30.35 in10.0 miSW (220°)8.1 mphPartly Cloudy
1:55 PM69.1 °F41.0 °F36 %30.34 in10.0 miSW (220°)4.6 mphClear
2:55 PM69.1 °F42.8 °F39 %30.33 in10.0 miSSW (210°)9.2 mphClear
3:55 PM66.9 °F45.0 °F45 %30.32 in10.0 miSSW (200°)9.2 mphClear
4:55 PM64.9 °F46.0 °F50 %30.32 in10.0 miSSW (200°)10.4 mphPartly Cloudy
5:55 PM57.9 °F46.9 °F67 %30.32 in10.0 miSouth (190°)5.8 mphPartly Cloudy
6:55 PM54.0 °F46.9 °F77 %30.33 in10.0 miSW (220°)4.6 mphClear
7:55 PM53.1 °F48.0 °F83 %30.33 in10.0 miSSW (200°)4.6 mphClear
8:55 PM52.0 °F48.0 °F86 %30.34 in10.0 miSSW (210°)4.6 mphClear
9:55 PM53.1 °F48.0 °F83 %30.33 in8.0 miCalmClear
10:55 PM53.1 °F48.9 °F86 %30.33 in8.0 miSSW (210°)3.5 mphClear
11:04 PM48.2 °F46.4 °F93 %30.33 in1.5 miSSW (210°)3.5 mphClear
11:52 PM50.0 °F46.4 °F87 %30.33 in1.8 miCalmClear
Hourly data recorded from KNBG, located miles away from Pointe A La Hache, Louisiana







STORIES FROM OUR PARTNERS